Portada
METAR-TAF:

METAR-TAF

Aeropuertos :

Fremont Municipal Airport

Fremont, Nebraska, Estados Unidos

latitud: 41-27N, longitud: 096-31W, altitud: 379 m

Observación

El informe se hizo hace 17 minutos, a las 06:55 UTC
Viento 11 kt del sur-sureste con ráfagas de 19 kt
Temperatura 28°C
Humedad 74%
Presión 1011 hPa
Visibilidad: 16.1 km
Cielo despejado

METAR: KFET 070655Z AUTO 15011G19KT 10SM CLR 28/23 A2984 RMK AO2 T02820232

Hora: 02:12 (07:12 UTC)


TAF: falta

Observaciones y pronósticos meteorológicos de más de 4000 aeropuertos (mensajes METAR y TAF).

Los puntos amarillos y rojos representan las estaciones disponibles.

Ponga el ratón en el punto deseado para ver el nombre de la estación.

Haga clic para ver las observaciones y los pronósticos meteorológicos.

Para cambiar el mapa : haga clic en los botones verdes con una cruz de color negro para hacer un zoom, en el botón verde con un guión para alejar o en las flechas verdes para mapas adyacentes.


METAR-TAF: